Overview Statistics Trail Chart Weather Telemetry Raw packets
 

This is the latest recevied weather packets stored in our database for station/object LU3HGB-WX. If no packets are shown the sender has not sent any weather packets the latest 10 day(s).

<< 29 30 31 32 33 34 35 >>
Time Temp. Humidity Pressure Rain* Wind** Luminosity Snow
1788482859 6.11° C 58% 1020 hPa 0 mm - 0 W/m² -
1788482559 6.11° C 58% 1020 hPa 0 mm - 0 W/m² -
1788482261 6.11° C 59% 1020 hPa 0 mm - 0 W/m² -
1788481960 6.11° C 56% 1020 hPa 0 mm - 0 W/m² -
1788481659 6.67° C 54% 1020 hPa 0 mm - 0 W/m² -
1788481360 6.67° C 53% 1020 hPa 0 mm - 0 W/m² -
1788481059 7.22° C 52% 1020 hPa 0 mm - 0 W/m² -
1788480760 7.22° C 51% 1019 hPa 0 mm - 0 W/m² -
1788480459 6.67° C 51% 1019 hPa 0 mm - 0 W/m² -
1788480162 7.22° C 51% 1019 hPa 0 mm - 0 W/m² -
1788479859 7.22° C 55% 1019 hPa 0 mm - 0 W/m² -
1788479560 7.78° C 51% 1019 hPa 0 mm - 0 W/m² -
1788479259 8.33° C 48% 1019 hPa 0 mm - 0 W/m² -
1788478959 8.89° C 48% 1019 hPa 0 mm - 0 W/m² -
1788478661 9.44° C 43% 1019 hPa 0 mm - 0 W/m² -
1788478359 10° C 41% 1019 hPa 0 mm - 0 W/m² -
1788478067 11.11° C 36% 1019 hPa 0 mm - 0 W/m² -
1788477760 11.11° C 35% 1019 hPa 0 mm - 0 W/m² -
1788477460 11.11° C 37% 1019 hPa 0 mm - 0 W/m² -
1788477160 11.67° C 26% 1019 hPa 0 mm - 0 W/m² -
1788476860 11.67° C 28% 1019 hPa 0 mm - 0 W/m² -
1788476560 11.67° C 33% 1019 hPa 0 mm - 0 W/m² -
1788476259 12.22° C 27% 1019 hPa 0 mm - 0 W/m² -
1788475960 12.78° C 27% 1018 hPa 0 mm - 0 W/m² -
1788475659 13.33° C 26% 1018 hPa 0 mm - 0 W/m² -

* Rain latest hour (hover to see other rain measurements)
** Current wind speed in m/s (hover to see current wind gust speed)